TimeMST,TemperatureF,Dew PointF,Humidity,Sea Level PressureIn,VisibilityMPH,Wind Direction,Wind SpeedMPH,Gust SpeedMPH,PrecipitationIn,Events,Conditions,WindDirDegrees,DateUTC
12:53 AM,35.1,30.9,85,30.48,10.0,NE,11.5,-,N/A,,Clear,40,2013-03-02 07:53:00
1:53 AM,33.1,30.0,89,30.47,10.0,ENE,13.8,-,N/A,,Clear,60,2013-03-02 08:53:00
2:53 AM,32.0,28.9,88,30.46,10.0,NE,15.0,-,N/A,,Clear,40,2013-03-02 09:53:00
3:53 AM,32.0,28.9,88,30.43,10.0,NE,15.0,-,N/A,,Clear,50,2013-03-02 10:53:00
4:53 AM,32.0,28.9,88,30.42,10.0,NE,16.1,-,N/A,,Clear,40,2013-03-02 11:53:00
5:53 AM,30.9,28.9,92,30.43,10.0,NE,17.3,-,N/A,,Clear,40,2013-03-02 12:53:00
6:53 AM,30.9,28.9,92,30.43,10.0,NE,17.3,-,N/A,,Clear,40,2013-03-02 13:53:00
7:53 AM,32.0,28.9,88,30.41,10.0,NE,18.4,-,N/A,,Clear,40,2013-03-02 14:53:00
8:53 AM,35.1,30.9,85,30.40,10.0,NE,19.6,26.5,N/A,,Clear,40,2013-03-02 15:53:00
9:53 AM,37.9,33.1,83,30.37,10.0,NE,21.9,29.9,N/A,,Clear,40,2013-03-02 16:53:00
10:53 AM,44.1,35.1,71,30.34,10.0,NE,18.4,-,N/A,,Clear,50,2013-03-02 17:53:00
11:53 AM,46.9,36.0,66,30.32,10.0,NE,19.6,-,N/A,,Clear,40,2013-03-02 18:53:00
12:53 PM,50.0,37.0,61,30.30,10.0,NE,19.6,-,N/A,,Clear,40,2013-03-02 19:53:00
1:53 PM,51.1,37.9,61,30.25,10.0,NE,17.3,-,N/A,,Clear,40,2013-03-02 20:53:00
2:53 PM,51.1,37.9,61,30.22,10.0,NE,18.4,-,N/A,,Clear,40,2013-03-02 21:53:00
3:53 PM,50.0,37.9,63,30.18,10.0,NE,18.4,-,N/A,,Clear,40,2013-03-02 22:53:00
4:53 PM,48.9,37.9,66,30.17,10.0,NE,17.3,-,N/A,,Clear,40,2013-03-02 23:53:00
5:53 PM,45.0,36.0,71,30.15,10.0,NE,17.3,-,N/A,,Clear,40,2013-03-03 00:53:00
6:53 PM,42.1,36.0,79,30.14,10.0,NNE,13.8,-,N/A,,Clear,30,2013-03-03 01:53:00
7:53 PM,41.0,34.0,76,30.14,10.0,NE,15.0,-,N/A,,Clear,40,2013-03-03 02:53:00
8:53 PM,39.9,34.0,79,30.11,10.0,NE,12.7,-,N/A,,Mostly Cloudy,40,2013-03-03 03:53:00
9:53 PM,39.0,33.1,79,30.09,10.0,NNE,12.7,-,N/A,,Scattered Clouds,30,2013-03-03 04:53:00
10:53 PM,37.9,33.1,83,30.06,10.0,NE,11.5,-,N/A,,Overcast,40,2013-03-03 05:53:00
11:53 PM,37.9,33.1,83,30.04,10.0,NNE,10.4,-,N/A,,Overcast,30,2013-03-03 06:53:00